Topeka, KS

8:51 PM CDT on August 23, 2016 (GMT -0500)
Forbes

Weather History for KFOE - March, 2013

Change the Weather History Date:

Tuesday, March 26, 2013

  Actual Average Record
Temperature  
Mean Temperature 26 °F -  
Max Temperature 35 °F 58 °F 85 °F (1991)
Min Temperature 16 °F 36 °F 5 °F (1955)
Degree Days  
Heating Degree Days 40    
Moisture  
Dew Point 18 °F    
Average Humidity 70    
Maximum Humidity 88    
Minimum Humidity 54    
Precipitation  
Precipitation 0.00 in - - ()
Sea Level Pressure  
Sea Level Pressure 30.38 in    
Wind  
Wind Speed 7 mph (West)    
Max Wind Speed 12 mph    
Max Gust Speed -    
Visibility 10 miles    
Events      
Averages and records for this station are not official NWS values.
T = Trace of Precipitation, MM = Missing Value Source: NWS Daily Summary

Daily Weather History Graph

Daily Weather History Graph

Search for Another Location

Airport or City:

Trip Planner

Search our weather history database for the weather conditions in past years. The results will help you decide how hot, cold, wet, or windy it might be!

Date:

Astronomy

Mar. 26, 2013 Rise Set
Actual Time 7:16 AM CDT 7:40 PM CDT
Civil Twilight 6:49 AM CDT 8:07 PM CDT
Nautical Twilight 6:18 AM CDT 8:38 PM CDT
Astronomical Twilight 5:46 AM CDT 9:11 PM CDT
Moon 7:18 PM CDT (3/26) 6:33 AM CDT (3/26)
Length of Visible Light 13h 17m
Length of Day
12h 24m
Waxing Gibbous, 99% of the Moon is Illuminated
Mar 26
Waxing Gibbous
Mar 27
Full
Apr 2
Last Quarter
Apr 10
New
Apr 18
First Quarter

Hourly Weather History & Observations

Time (CDT) Temp. Windchill Dew Point Humidity Pressure Visibility Wind Dir Wind Speed Gust Speed Precip Events Conditions
12:53 AM 28.0 °F 18.1 °F 19.9 °F 72% 30.38 in 10.0 mi NW 11.5 mph - N/A   Overcast
1:53 AM 26.1 °F 15.6 °F 19.9 °F 78% 30.38 in 10.0 mi NW 11.5 mph - N/A   Mostly Cloudy
2:53 AM 23.0 °F 14.7 °F 17.1 °F 78% 30.39 in 10.0 mi WNW 6.9 mph - N/A   Clear
3:53 AM 21.9 °F 11.7 °F 17.1 °F 82% 30.38 in 10.0 mi WNW 9.2 mph - N/A   Clear
4:53 AM 21.0 °F 11.4 °F 16.0 °F 81% 30.38 in 10.0 mi NW 8.1 mph - N/A   Clear
5:53 AM 19.0 °F 11.1 °F 15.1 °F 85% 30.39 in 10.0 mi WNW 5.8 mph - N/A   Clear
6:53 AM 16.0 °F 7.4 °F 12.9 °F 88% 30.40 in 10.0 mi WNW 5.8 mph - N/A   Clear
7:53 AM 17.1 °F 10.0 °F 12.9 °F 84% 30.43 in 10.0 mi WNW 4.6 mph - N/A   Clear
8:53 AM 21.0 °F - 16.0 °F 81% 30.44 in 10.0 mi Calm Calm - N/A   Clear
9:53 AM 26.1 °F 20.5 °F 18.0 °F 71% 30.45 in 10.0 mi WNW 4.6 mph - N/A   Clear
10:53 AM 28.9 °F 25.2 °F 19.0 °F 67% 30.45 in 10.0 mi NW 3.5 mph - N/A   Clear
11:53 AM 30.9 °F - 18.0 °F 59% 30.44 in 10.0 mi Calm Calm - N/A   Clear
12:53 PM 30.9 °F 25.2 °F 17.1 °F 57% 30.43 in 10.0 mi West 5.8 mph - N/A   Clear
1:53 PM 33.1 °F 27.7 °F 19.0 °F 56% 30.41 in 10.0 mi WSW 5.8 mph - N/A   Clear
2:53 PM 33.1 °F 28.7 °F 19.0 °F 56% 30.39 in 10.0 mi WSW 4.6 mph - N/A   Clear
3:53 PM 34.0 °F 29.8 °F 19.0 °F 54% 30.38 in 10.0 mi SSW 4.6 mph - N/A   Clear
4:53 PM 34.0 °F 29.8 °F 19.0 °F 54% 30.35 in 10.0 mi SW 4.6 mph - N/A   Clear
5:53 PM 35.1 °F 31.0 °F 19.9 °F 54% 30.33 in 10.0 mi SSW 4.6 mph - N/A   Clear
6:53 PM 35.1 °F 31.0 °F 21.9 °F 59% 30.32 in 10.0 mi SSE 4.6 mph - N/A   Clear
7:53 PM 32.0 °F 26.4 °F 21.9 °F 66% 30.33 in 10.0 mi South 5.8 mph - N/A   Clear
8:53 PM 30.0 °F 26.5 °F 21.9 °F 72% 30.35 in 10.0 mi SSE 3.5 mph - N/A   Clear
9:53 PM 27.0 °F 20.5 °F 21.0 °F 78% 30.33 in 10.0 mi ESE 5.8 mph - N/A   Clear
10:53 PM 28.0 °F 20.8 °F 21.0 °F 75% 30.31 in 10.0 mi ESE 6.9 mph - N/A   Clear
11:53 PM 26.1 °F 21.9 °F 19.9 °F 78% 30.32 in 10.0 mi ESE 3.5 mph - N/A   Clear